AirNav   Air Wisconsin Up To $57,000 Bonus
 
 927 users online  

WY11 A Bar A Ranch Airport
Encampment, Wyoming, USA

GOING TO ENCAMPMENT?


FAA INFORMATION EFFECTIVE 26 JANUARY 2023

Location

FAA Identifier: WY11
Lat/Long: 41-09-29.8870N 106-33-27.1110W
41-09.498117N 106-33.451850W
41.1583019,-106.5575308
(estimated)
Elevation: 7880 ft. / 2402 m (estimated)
Variation: 13E (1985)
From city: 11 miles E of ENCAMPMENT, WY
Time zone: UTC -7 (UTC -6 during Daylight Saving Time)
Zip code: 82325

Airport Operations

Airport use: Private use. Permission required prior to landing
Activation date: 11/1963
Control tower: no
ARTCC: DENVER CENTER
FSS: CASPER FLIGHT SERVICE STATION
Attendance: UNATNDD
Wind indicator: yes
Segmented circle: no
Landing fee: yes

Airport Communications

UNICOM: 122.8

Nearby radio navigation aids

VOR radial/distance  VOR name  Freq  Var
LARr240/39.2LARAMIE VOR/DME117.6014E

 
NDB name  Hdg/Dist  Freq  Var  ID
SARATOGA132/21.226612ESAA ... .- .-

Airport Services

Airframe service: NONE
Powerplant service: NONE

Runway Information

Runway NW/SE

Dimensions: 5704 x 50 ft. / 1739 x 15 m
Surface: asphalt, in excellent condition
RUNWAY NW  RUNWAY SE
Traffic pattern: leftleft

Airport Ownership and Management from official FAA records

Ownership: Privately-owned
Owner: A BAR A RANCH
PO BOX 247
ENCAMPMENT, WY 82325
Phone 307-327-5454
Manager: JUSTIN HOWE
PO BOX 247
ENCAMPMENT, WY 82325
Phone 307-327-5454

Airport Operational Statistics

Aircraft based on the field: 1
Single engine airplanes: 1
    

Additional Remarks

FREQUENT CROSS WIND.
NUMEROUS HILLS AROUND ARPT. HILL ON S END OF RY FROM 3800 FT TO 4900 FT.
FLY OVER PRIOR TO LANDING RECOMMENDED.
CALL A BAR A RANCH TO ARRANGE PICK-UP AND RY SECURITY 307-327-5454.
ROAD CROSSES MID-FLD.
UNICOM TO A BAR A AVBL FM AIR ONLY.
RANCH HQ 4 MIS E OF RWY.
FOR CD CTC DENVER ARTCC AT 303-651-4257.

Instrument Procedures

There are no published instrument procedures at WY11.

Some nearby airports with instrument procedures:

KSAA - Shively Field Airport (21 nm NW)
33V - Walden-Jackson County Airport (28 nm SE)
KLAR - Laramie Regional Airport (41 nm E)
KSBS - Steamboat Springs Airport/Bob Adams Field (41 nm S)
KDWX - Dixon Airport (43 nm W)
 
Loc | Ops | Rwys | IFR | FBO | Links
Com | Nav | Svcs | Stats | Notes

AirBoss

 
Area around WY11 (A Bar A Ranch Airport)
 
Road maps at: MapQuest Bing Google
 
Aerial photo
WARNING: Photo may not be current or correct
Aerial photo of WY11 (A Bar A Ranch Airport)
looking southeast.

Do you have a better or more recent aerial photo of A Bar A Ranch Airport that you would like to share? If so, please send us your photo.

 
Sectional chart

 
Airport distance calculator
Flying to A Bar A Ranch Airport? Find the distance to fly.

From to WY11

Sunrise and sunset
Times for 26-Jan-2023
 Local
(UTC-7)
 Zulu
(UTC)
Morning civil twilight06:5413:54
Sunrise07:2414:24
Sunset17:1400:14
Evening civil twilight17:4400:44

Current date and time
Zulu (UTC)  27-Jan-2023 02:59:37
Local (UTC-7)  26-Jan-2023 19:59:37
 
METAR
KSAA 
21nm NW 
270235Z AUTO 22018G26KT 7SM SCT035 BKN041 OVC049 M05/M08 A3013 RMK AO2
K33V 
28nm SE 
270235Z AUTO 19012G17KT 5SM OVC014 M09/M12 A3014 RMK AO1
KSBS 
41nm S 
270235Z AUTO 00000KT 1SM BKN023 OVC031 M09/M09 A3024 RMK AO1 T10951095
KLAR 
41nm E 
270253Z AUTO 22016G25KT 10SM OVC040 M06/M11 A3002 RMK AO2 SLP218 T10611106 50006
TAF
KLAR 
41nm E 
261731Z 2618/2718 26014KT P6SM SKC FM262000 26019G29KT P6SM SCT100 FM262300 24017G28KT P6SM BKN050 FM270500 24015G25KT P6SM BKN060 WS020/29045KT
KRWL 
47nm NW 
261731Z 2618/2718 24020G32KT P6SM FEW200 FM262000 23030G45KT P6SM BKN070 FM270200 24029G44KT P6SM VCSH BKN060 FM270700 24031G46KT 6SM -SN BLSN BKN030
NOTAMs
Click for the latest NOTAMs
NOTAMs are issued by the DoD/FAA and will open in a separate window not controlled by AirNav.

 

 
 

Would you like to see your business listed on this page?

 If your business provides an interesting product or service to pilots, flight crews, aircraft, or users of the A Bar A Ranch Airport, you should consider listing it here.  To start the listing process, click on the button below
 
Add a business
 

Other Pages about A Bar A Ranch Airport

Update a link
 
Copyright © AirNav, LLC. All rights reserved. Privacy Policy  Contact